Rochester, MN
on Saturday, October 12, 2013

Saturday
Previous Day Next Day
Daily Summary
 ActualAverageRecord
Temperature
Mean Temperature °F 50°F  
Max Temperature 62°F 60°F 85°F (1975)
Min Temperature 40°F 40°F 23°F (1988)
Degree Days
Heating Degree Days 14 15  
Month to date heating degree days 81 160  
Since 1 July heating degree days 235 375  
Cooling Degree Days 0 0  
Month to date cooling degree days 0 4  
Year to date cooling degree days 656 583  
Growing Degree Days2 (Base °F )  
Moisture
Dew Point 42°F   
Average Humidity 61    
Maximum Humidity 82    
Minimum Humidity 39    
Precipitation
Precipitation 0.00 in 0.07 in 1.81 in (1997)
Month to date precipitation 2.09 1.01  
Year to date precipitation 38.01 28.65  
Snow
Snow 0.00 in 0.00 in 1.70 in (2009)
Month to date snowfall 0.0 0.1  
Since 1 July snowfall 0.0 0.1  
Snow Depth 0.00 in   
Wind
Wind Speed 13 mph   
Max Wind Speed 30 mph   
Max Gust Speed 39 mph   
Visibility 10 miles   
Events     

Key: T is trace of precipitation, MM is missing value
Source: NWS Daily Summary
Time(CDT)TemperatureDew PointHumidity Pressure Visibility Wind DirectionWind SpeedGust SpeedPrecipitationEvents Conditions
12:33 AM 64.4°F 55.4°F 73% 29.78 in 10.0 miles South 13.8 mph 24.2 mph N/A   Mostly Cloudy
12:54 AM 64.0°F 54.0°F 70% 29.79 in 10.0 miles West 17.3 mph - N/A   Mostly Cloudy
1:02 AM 62.6°F 50.0°F 63% 29.80 in 10.0 miles WSW 13.8 mph - N/A   Overcast
1:12 AM 60.8°F 48.2°F 63% 29.81 in 10.0 miles WSW 12.7 mph - N/A   Mostly Cloudy
1:54 AM 57.9°F 51.1°F 78% 29.82 in 10.0 miles WSW 11.5 mph - N/A   Scattered Clouds
2:54 AM 55.0°F 46.9°F 74% 29.84 in 10.0 miles WSW 13.8 mph - N/A   Overcast
3:54 AM 53.1°F 45.0°F 74% 29.85 in 10.0 miles North - - N/A   Mostly Cloudy
4:54 AM 51.1°F 44.1°F 77% 29.86 in 10.0 miles WSW 8.1 mph - N/A   Clear
5:54 AM 50.0°F 43.0°F 77% 29.88 in 10.0 miles WSW 10.4 mph - N/A   Clear
6:54 AM 48.0°F 42.1°F 80% 29.90 in 10.0 miles WSW 12.7 mph - N/A   Clear
7:54 AM 46.9°F 41.0°F 80% 29.92 in 10.0 miles WSW 13.8 mph - N/A   Clear
8:54 AM 50.0°F 41.0°F 71% 29.93 in 10.0 miles WSW 13.8 mph - N/A   Clear
9:54 AM 53.1°F 41.0°F 64% 29.95 in 10.0 miles WSW 18.4 mph - N/A   Clear
10:54 AM 55.0°F 39.9°F 57% 29.97 in 10.0 miles West 13.8 mph 23.0 mph N/A   Clear
11:54 AM 57.0°F 39.9°F 53% 29.98 in 10.0 miles West 19.6 mph 26.5 mph N/A   Clear
12:54 PM 57.9°F 39.9°F 51% 29.99 in 10.0 miles West 19.6 mph 26.5 mph N/A   Partly Cloudy
1:54 PM 57.0°F 37.9°F 49% 30.00 in 10.0 miles West 19.6 mph 26.5 mph N/A   Mostly Cloudy
2:54 PM 59.0°F 37.9°F 46% 30.01 in 10.0 miles West 21.9 mph 27.6 mph N/A   Mostly Cloudy
3:54 PM 60.1°F 35.1°F 39% 30.03 in 10.0 miles WNW 25.3 mph 38.0 mph N/A   Partly Cloudy
4:54 PM 57.9°F 35.1°F 42% 30.06 in 10.0 miles West 15.0 mph - N/A   Clear
5:54 PM 57.0°F 36.0°F 45% 30.08 in 10.0 miles West 13.8 mph - N/A   Clear
6:54 PM 50.0°F 37.0°F 61% 30.11 in 10.0 miles WSW 8.1 mph - N/A   Clear
7:54 PM 48.0°F 36.0°F 63% 30.14 in 10.0 miles West 6.9 mph - N/A   Clear
8:54 PM 45.0°F 35.1°F 68% 30.16 in 10.0 miles West 8.1 mph - N/A   Clear
9:54 PM 44.1°F 34.0°F 68% 30.19 in 10.0 miles West 6.9 mph - N/A   Clear
10:54 PM 43.0°F 34.0°F 71% 30.21 in 10.0 miles West 5.8 mph - N/A   Clear
11:54 PM 42.1°F 33.1°F 70% 30.23 in 10.0 miles West 8.1 mph - N/A   Clear
Astronomy
Sunrise:07:21 AM (CDT) Moon Rise:02:52 PM (CDT)10/12
Sunset:06:30 PM (CDT) Moon Set:12:12 AM (CDT)10/12
Moon Phase
Oct. 12 Oct. 18 Oct. 26 Nov. 03 Nov. 10

Copyright © 2017 The Weather Underground, Inc.